GW4551 Weather Reports


time (UTC)temp
C
wind
direction
speed
KPH
gust
KPH
rain 1hr
cm
rain 24hr
cm
rain mn
cm
humidity
%
barometer
mb
20260506050524 7 358 6.4 14.5 0.00 0.00 0.00 81 1012.8
20260506044516 7 23 6.4 9.7 0.00 0.00 0.00 82 1012.8
20260506043533 7 17 8.0 16.1 0.00 0.00 0.00 82 1012.8
20260506042528 7 348 6.4 16.1 0.00 0.00 0.00 84 1012.7
20260506041604 7 4 4.8 14.5 0.00 0.00 0.00 84 1012.6
20260506040520 7 11 4.8 11.3 0.00 0.00 0.00 83 1012.7
20260506035556 7 14 6.4 12.9 0.00 0.00 0.00 82 1012.6
20260506034532 8 18 9.7 17.7 0.00 0.00 0.00 82 1012.6
20260506033528 8 4 6.4 12.9 0.00 0.00 0.00 82 1012.5
20260506032522 8 22 6.4 14.5 0.00 0.00 0.00 82 1012.5
20260506031518 8 8 8.0 16.1 0.00 0.00 0.00 82 1012.6
20260506030535 8 14 6.4 12.9 0.00 0.00 0.00 83 1012.7
20260506025531 8 33 8.0 17.7 0.00 0.00 0.00 83 1012.6
20260506024526 8 11 3.2 9.7 0.00 0.00 0.00 84 1012.6
20260506023521 8 13 6.4 12.9 0.00 0.00 0.00 83 1012.6
20260506022517 8 19 4.8 11.3 0.00 0.00 0.00 83 1012.5
20260506021534 8 4 3.2 6.4 0.00 0.00 0.00 81 1012.7
20260506020529 8 26 4.8 11.3 0.00 0.00 0.00 81 1012.7
20260506015524 8 15 6.4 11.3 0.00 0.00 0.00 80 1012.7
20260506014520 8 15 4.8 9.7 0.00 0.00 0.00 79 1012.8
20260506013516 9 41 6.4 14.5 0.00 0.00 0.00 78 1012.8
20260506012532 9 46 9.7 17.7 0.00 0.00 0.00 77 1012.7
20260506011528 9 42 9.7 12.9 0.00 0.00 0.00 77 1012.9
20260506010525 9 42 9.7 12.9 0.00 0.00 0.00 76 1012.8
20260506005520 9 30 9.7 14.5 0.00 0.00 0.00 76 1012.9
20260506004516 9 24 9.7 16.1 0.00 0.00 0.00 77 1012.9
20260506003612 10 20 8.0 16.1 0.00 0.00 0.00 78 1012.9
20260506002529 10 23 8.0 12.9 0.00 0.00 0.00 78 1012.9
20260506001524 10 30 9.7 16.1 0.00 0.00 0.00 78 1013.0
20260506000520 10 26 4.8 11.3 0.00 0.00 0.00 80 1012.9
20260505235535 10 51 6.4 12.9 0.00 0.00 0.00 79 1012.8
20260505234532 10 66 6.4 12.9 0.00 0.00 0.00 79 1013.0
20260505233528 10 59 6.4 11.3 0.00 0.00 0.00 80 1012.9
20260505232523 10 52 6.4 11.3 0.00 0.00 0.00 81 1012.9
20260505231518 10 48 6.4 9.7 0.00 0.00 0.00 80 1012.9
20260505230534 10 64 4.8 12.9 0.00 0.00 0.00 78 1012.9
20260505225529 11 27 6.4 11.3 0.00 0.00 0.00 75 1012.9
20260505224524 11 22 4.8 9.7 0.00 0.00 0.00 74 1012.9
20260505223519 11 20 4.8 11.3 0.00 0.00 0.00 73 1012.8
20260505222535 11 27 6.4 11.3 0.00 0.00 0.00 73 1012.6
20260505221610 11 20 6.4 12.9 0.00 0.00 0.00 72 1012.6
20260505220525 11 31 8.0 14.5 0.00 0.00 0.00 72 1012.5
20260505215521 11 12 6.4 12.9 0.00 0.00 0.00 71 1012.6
20260505214516 11 26 8.0 14.5 0.00 0.00 0.00 71 1012.6
20260505213533 11 17 8.0 17.7 0.00 0.00 0.00 71 1012.6
20260505212528 11 20 4.8 9.7 0.00 0.00 0.00 72 1012.7
20260505211523 12 15 8.0 16.1 0.00 0.00 0.00 72 1012.6
20260505210518 12 10 6.4 14.5 0.00 0.00 0.00 72 1012.4
20260505205533 12 15 8.0 14.5 0.00 0.00 0.00 71 1012.4
20260505204529 12 15 4.8 9.7 0.00 0.00 0.00 70 1012.4
20260505203523 12 1 4.8 9.7 0.00 0.00 0.00 70 1012.3
20260505202518 12 339 4.8 9.7 0.00 0.00 0.00 70 1012.2
20260505201612 12 337 4.8 11.3 0.00 0.00 0.00 70 1012.2
20260505200528 12 340 6.4 11.3 0.00 0.00 0.00 70 1012.2
20260505195523 12 331 6.4 11.3 0.00 0.00 0.00 69 1012.1
20260505194518 12 334 8.0 12.9 0.00 0.00 0.00 69 1012.1
20260505193533 12 334 8.0 12.9 0.00 0.00 0.00 69 1011.9
20260505192528 12 341 6.4 11.3 0.00 0.00 0.00 69 1011.8
20260505191523 12 339 6.4 11.3 0.00 0.00 0.00 69 1011.8
20260505190519 12 335 6.4 11.3 0.00 0.00 0.00 68 1011.8
20260505185534 13 344 4.8 11.3 0.00 0.00 0.00 67 1011.6
20260505184530 13 0 6.4 14.5 0.00 0.00 0.00 67 1011.7
20260505183524 13 349 3.2 9.7 0.00 0.00 0.00 70 1011.7
20260505182519 13 343 4.8 6.4 0.00 0.00 0.00 70 1011.5
20260505181534 13 335 3.2 6.4 0.00 0.00 0.00 70 1011.6
20260505180529 13 327 3.2 4.8 0.00 0.00 0.00 70 1011.6
20260505175523 13 336 3.2 4.8 0.00 0.00 0.00 69 1011.7
20260505174519 13 340 3.2 6.4 0.00 0.00 0.00 69 1011.7
20260505173533 13 344 4.8 9.7 0.00 0.00 0.00 68 1011.7
20260505172526 13 340 8.0 12.9 0.00 0.00 0.00 68 1011.8
20260505171521 13 343 6.4 11.3 0.00 0.00 0.00 68 1011.7
20260505170609 13 337 9.7 14.5 0.00 0.00 0.00 68 1011.8
20260505165604 13 331 9.7 14.5 0.00 0.00 0.00 67 1011.9
20260505164520 13 329 4.8 9.7 0.00 0.00 0.00 66 1011.8
20260505163516 14 332 6.4 12.9 0.00 0.00 0.00 65 1011.8
20260505162611 13 338 4.8 9.7 0.00 0.00 0.00 65 1011.8
20260505161527 13 329 6.4 11.3 0.00 0.00 0.00 64 1011.8
20260505160603 13 337 4.8 9.7 0.00 0.00 0.00 65 1011.9
20260505152526 13 333 6.4 11.3 0.00 0.00 0.00 66 1011.9
20260505151522 13 340 4.8 11.3 0.00 0.00 0.00 65 1012.0
20260505150518 13 353 3.2 6.4 0.00 0.00 0.00 65 1012.1
20260505140614 14 349 9.7 14.5 0.00 0.00 0.00 62 1012.1
20260505124521 13 333 8.0 17.7 0.00 0.00 0.00 68 1012.5
20260505123517 13 322 6.4 14.5 0.00 0.00 0.00 68 1012.5
20260505122533 13 345 6.4 14.5 0.00 0.00 0.00 66 1012.6
20260505121529 13 342 6.4 11.3 0.00 0.00 0.00 68 1012.6
20260505120525 13 359 8.0 14.5 0.00 0.00 0.00 68 1012.6
20260505115520 13 351 6.4 12.9 0.00 0.00 0.00 69 1012.7
20260505114517 12 349 6.4 14.5 0.00 0.00 0.00 71 1012.7
20260505113533 12 8 8.0 12.9 0.00 0.00 0.00 73 1012.8
20260505112528 12 27 8.0 14.5 0.00 0.00 0.00 74 1012.8
20260505111603 12 45 9.7 20.9 0.00 0.00 0.00 74 1013.0
20260505110520 12 36 12.9 20.9 0.00 0.00 0.00 73 1012.9
20260505101519 11 358 6.4 16.1 0.00 0.00 0.00 78 1013.0
20260505100536 11 8 6.4 14.5 0.00 0.00 0.00 78 1013.0
20260505095531 11 332 9.7 14.5 0.00 0.00 0.00 78 1013.1
20260505094607 11 333 6.4 12.9 0.00 0.00 0.00 79 1013.2
20260505093523 11 10 8.0 16.1 0.00 0.00 0.00 77 1013.2
20260505092519 11 26 6.4 14.5 0.00 0.00 0.00 79 1013.2
20260505091535 11 14 8.0 16.1 0.00 0.00 0.00 78 1013.3
20260505090531 11 10 8.0 14.5 0.00 0.00 0.00 79 1013.3
20260505085527 11 0 9.7 17.7 0.00 0.00 0.00 79 1013.3
20260505084523 11 6 8.0 16.1 0.00 0.00 0.00 80 1013.3
20260505083518 11 353 9.7 16.1 0.00 0.00 0.00 80 1013.4
20260505082614 11 6 8.0 14.5 0.00 0.00 0.00 81 1013.3
20260505081531 11 16 9.7 14.5 0.00 0.00 0.00 81 1013.3
20260505080606 11 20 8.0 14.5 0.00 0.00 0.00 80 1013.3
20260505075522 11 354 11.3 22.5 0.00 0.00 0.00 80 1013.3
20260505074518 11 357 8.0 16.1 0.00 0.00 0.00 81 1013.2
20260505073533 11 340 8.0 17.7 0.00 0.00 0.00 84 1013.2
20260505072529 11 340 8.0 17.7 0.00 0.00 0.00 85 1013.2
20260505071525 11 340 8.0 12.9 0.00 0.00 0.00 86 1013.3
20260505070521 10 335 6.4 11.3 0.00 0.00 0.00 87 1013.4
20260505065516 10 338 4.8 9.7 0.00 0.00 0.00 88 1013.4
20260505064531 10 342 4.8 9.7 0.00 0.00 0.00 88 1013.5
20260505063528 10 354 4.8 9.7 0.00 0.00 0.00 88 1013.3
20260505062523 10 9 3.2 4.8 0.00 0.00 0.00 89 1013.3
20260505061520 10 9 1.6 4.8 0.00 0.00 0.00 91 1013.4
20260505060535 10 340 4.8 12.9 0.00 0.00 0.00 92 1013.4
20260505055531 9 350 6.4 14.5 0.00 0.00 0.00 92 1013.3
20260505054527 9 341 6.4 12.9 0.00 0.00 0.00 92 1013.2
20260505053523 9 12 4.8 9.7 0.00 0.00 0.00 92 1013.3
20260505052518 9 24 4.8 11.3 0.00 0.00 0.00 92 1013.3